Regional Weather Roundup
Issued by NWS Newport/Morehead, NC

Current Version | Previous Version | Text Only | Print | Product List | Glossary On
Versions: 1 2 3 4 5 6 7 8 9 10 11 12 13 14 15 16 17 18 19 20 21 22 23 24 25 26 27 28 29 30 31 32 33 34 35 36 37 38 39 40 41 42 43 44 45 46 47 48 49 50
000 ASUS42 KMHX 270327 RWRMHX WEATHER ROUNDUP FOR EASTERN NORTH CAROLINA NATIONAL WEATHER SERVICE NEWPORT/MOREHEAD CITY NC 1100 PM EDT THU MAR 26 2015 NOTE: "FAIR" INDICATES FEW OR NO CLOUDS BELOW 12,000 FEET WITH NO SIGNIFICANT WEATHER AND/OR OBSTRUCTIONS TO VISIBILITY NCZ015>017-031-032-045>047-102-103-270400- NORTH COAST CITY SKY/WX TMP DP RH WIND PRES REMARKS EDENTON CLOUDY 64 57 79 S10 29.76S ELIZABETH CITY CLOUDY 65 56 72 S14G21 29.75S KITTY HAWK CLOUDY 64 59 85 SW10G18 29.77S MANTEO CLOUDY 62 58 87 SW22 29.77F $$ NCZ045>047-081-094-103-104-270400- CENTRAL COAST CITY SKY/WX TMP DP RH WIND PRES REMARKS FRISCO CLOUDY 65 60 84 SW12 29.82F SWANQUARTER N/A 63 N/A N/A S12G20 29.74F $$ NCZ095-097-098-100-101-270400- SOUTHERN COAST CITY SKY/WX TMP DP RH WIND PRES REMARKS BEAUFORT CLOUDY 64 62 93 S13 29.82F CEDAR ISLAND N/A 66 N/A N/A S10G20 29.82F JACKSONVILLE PTCLDY 63 56 78 S7 29.78F PINEY ISLAND MOCLDY N/A N/A N/A S15G24 29.80F WILMINGTON PTCLDY 64 59 83 S10 29.81F $$ NCZ011>013-027>030-043-044-078>080-089-090>093-098-270400- COASTAL PLAIN CITY SKY/WX TMP DP RH WIND PRES REMARKS AHOSKIE CLOUDY 65 57 75 S7 29.74S CLINTON CLOUDY 66 60 81 S6 29.77S ELIZABETHTOWN CLOUDY 67 58 72 S9 29.77F GOLDSBORO CLOUDY 67 66 98 S9G17 29.74S GREENVILLE MOCLDY 66 59 77 S10 29.78S HAVELOCK PTCLDY 65 58 78 S10G21 29.81F KENANSVILLE MOCLDY 64 56 76 CALM 29.78F KINSTON MOCLDY 66 57 73 S12 29.77F NEW BERN PTCLDY 64 57 78 S8 29.80F RICHLANDS PTCLDY 63 54 72 S8 29.79F ROCKY MOUNT CLOUDY 67 59 75 S9 29.73F WASHINGTON MOCLDY 66 56 71 S6 29.77F WHITEVILLE CLOUDY 65 57 76 S7 29.78F $$ AMZ130-135-150-152-154-156-158-170-250-252-270-ANZ085-086-088-633-658-670-270400- MARINE OBSERVATIONS STATION/POSITION TIME TEMP WIND PRES WAVE SWELL AIR SEA DIR/SP/G HT/PER HT/PER (UTC) (F) (DEG/KT/KT) (MB) (FT/S) (FT/S) CHESAPEAKE LIGHT 0300 54 200/ 30/ 30 1006.3 64 E VA BEACH 0250 57 51 200/ 19/ 21 1007.5 10/ 9 7/ 9 DUCK 0300 63 40 190/ 15/ 20 1006.8 2 E DUCK 0311 42 N/A 5/ 8 2/11 10 NE DUCK NOT AVBL OREGON INLET 0300 61 59 190/ 19/ 21 1008.6 HATTERAS CG 0300 65 60 210/ 8/ 12 1010.0 CAPE LOOKOUT 0300 63 190/ 10/ 11 1009.6 BEAUFORT LAB 0300 63 58 200/ 10/ 15 1008.6 27 SE WRIGHTSVLE 0300 63 64 220/ 8/ 10 1012.0 5 SE WRIGHTSVLE 0200 59 56 210/ 10/ 10 1010.4 225 S CAPE HAT 0250 71 69 190/ 19/ 25 1014.6 8/ 7 2/11 41 SE CHARLESTON 0250 71 70 190/ 14/ 16 1009.4 5/ 8 5/ 8 $$

USA.gov is the U.S. government's official web portal to all federal, state and local government web resources and services.